This is the latest recevied weather packets stored in our database for station/object W6MAF. If no packets are shown the sender has not sent any weather packets the latest 10 day(s).
| Time | Temp. | Humidity | Pressure | Rain* | Wind** | Luminosity | Snow |
|---|---|---|---|---|---|---|---|
| 1788392917 | 24.44° C | 7% | - | 0 mm | 4.02 m/s, 194° | - | - |
| 1788392315 | 24.44° C | 7% | - | 0 mm | 1.34 m/s, 179° | - | - |
| 1788392017 | 25° C | 6% | - | 0 mm | 6.26 m/s, 187° | - | - |
| 1788391719 | 25° C | 6% | - | 0 mm | 1.79 m/s, 203° | - | - |
| 1788391422 | 25° C | 6% | - | 0 mm | 2.24 m/s, 200° | - | - |
| 1788391124 | 25° C | 6% | - | 0 mm | 1.34 m/s, 212° | - | - |
| 1788390826 | 25° C | 6% | - | 0 mm | 0.89 m/s, 214° | - | - |
| 1788390525 | 25° C | 6% | - | 0 mm | 4.47 m/s, 195° | - | - |
| 1788390227 | 25.56° C | 6% | - | 0 mm | 0.89 m/s, 194° | - | - |
| 1788389929 | 25.56° C | 6% | - | 0 mm | 4.02 m/s, 191° | - | - |
| 1788389632 | 25.56° C | 6% | - | 0 mm | 4.92 m/s, 193° | - | - |
| 1788389334 | 25.56° C | 6% | - | 0 mm | 0 m/s | - | - |
| 1788389036 | 25.56° C | 5% | - | 0 mm | 1.79 m/s, 203° | - | - |
| 1788388735 | 25.56° C | 5% | - | 0 mm | 1.79 m/s, 194° | - | - |
| 1788388438 | 25.56° C | 6% | - | 0 mm | 1.79 m/s, 193° | - | - |
| 1788388140 | 26.11° C | 5% | - | 0 mm | 0.89 m/s, 219° | - | - |
| 1788387842 | 26.11° C | 5% | - | 0 mm | 0.89 m/s, 177° | - | - |
| 1788387544 | 26.11° C | 5% | - | 0 mm | 3.58 m/s, 214° | - | - |
| 1788387246 | 26.11° C | 5% | - | 0 mm | 0.45 m/s, 177° | - | - |
| 1788386946 | 26.67° C | 4% | - | 0 mm | 1.79 m/s, 193° | - | - |
| 1788386648 | 26.67° C | 5% | - | 0 mm | 1.34 m/s, 218° | - | - |
| 1788386350 | 26.67° C | 5% | - | 0 mm | 1.79 m/s, 194° | - | - |
| 1788386052 | 26.67° C | 4% | - | 0 mm | 1.79 m/s, 204° | - | - |
| 1788385755 | 26.67° C | 4% | - | 0 mm | 0.45 m/s, 180° | - | - |
| 1788385457 | 26.67° C | 4% | - | 0 mm | 0.45 m/s, 203° | - | - |
* Rain latest hour (hover to see other rain measurements)
** Current wind speed in m/s (hover to see current wind gust speed)